This demonstration page uses our WeatherBlox Daily Observations layout. Learn more.

Left ArrowRight Arrow

38.88101, -77.10428

Hourly Observations for November 14, 2018

Temp ( °F °C ) Dew Point ( °F °C ) Humidity (%) Winds ( mph kmh ) Pressure ( in mb ) Visibility ( mi km ) Precip ( " mm )
12:52 am 00:52 Cloudy 44 6.7 30 -1.1 58 58 N 16 26 30.29 1026 10 16.0934 0 0
1:52 am 01:52 Cloudy 42 5.6 28 -2.2 58 58 N 12 19 30.3 1026 10 16.0934 0 0
2:52 am 02:52 Mostly Cloudy 42 5.6 27 -2.8 55 55 NW 12 19 30.33 1027 10 16.0934 0 0
3:52 am 03:52 Mostly Cloudy 41 5 24 -4.4 51 51 NNW 12 19 30.34 1027 10 16.0934 0 0
4:52 am 04:52 Cloudy 40 4.4 22 -5.6 49 49 NNW 10 17 30.38 1029 10 16.0934 0 0
5:52 am 05:52 Cloudy 40 4.4 22 -5.6 49 49 NW 10 17 30.4 1029 10 16.0934 0 0
6:52 am 06:52 Cloudy 39 3.9 23 -5 53 53 NNW 14 22 30.42 1030 10 16.0934 0 0
7:52 am 07:52 Cloudy 39 3.9 23 -5 53 53 NNW 14 22 30.44 1031 10 16.0934 0 0
8:52 am 08:52 Cloudy 39 3.9 22 -5.6 50 50 NW 14 22 30.47 1032 10 16.0934 0 0
9:52 am 09:52 Cloudy 41 5 23 -5 49 49 NNW 10 17 30.49 1032 10 16.0934 0 0
10:52 am 10:52 Cloudy 41 5 22 -5.6 47 47 NNW 12 19 30.49 1032 10 16.0934 0 0
11:52 am 11:52 Cloudy 43 6.1 24 -4.4 47 47 NW 8 13 30.48 1032 10 16.0934 0 0
12:52 pm 12:52 Cloudy 44 6.7 23 -5 43 43 NNW 8 13 30.47 1032 10 16.0934 0 0
1:52 pm 13:52 Cloudy 46 7.8 25 -3.9 44 44 NNW 12 19 30.47 1032 10 16.0934 0 0
2:52 pm 14:52 Cloudy 44 6.7 23 -5 43 43 NW 14 22 30.48 1032 10 16.0934 0 0
3:52 pm 15:52 Cloudy 43 6.1 23 -5 45 45 NNW 7 11 30.49 1032 10 16.0934 0 0
4:52 pm 16:52 Cloudy 43 6.1 23 -5 45 45 N 7 11 30.5 1033 10 16.0934 0 0
5:52 pm 17:52 Cloudy 42 5.6 23 -5 47 47 NNE 10 17 30.49 1032 10 16.0934 0 0
6:52 pm 18:52 Cloudy 43 6.1 21 -6.1 42 42 NNE 8 13 30.5 1033 10 16.0934 0 0
7:52 pm 19:52 Mostly Cloudy 42 5.6 23 -5 47 47 NE 8 13 30.51 1033 10 16.0934 0 0
8:52 pm 20:52 Cloudy 42 5.6 22 -5.6 45 45 NNE 12 19 30.54 1034 10 16.0934 0 0
9:52 pm 21:52 Cloudy 41 5 23 -5 49 49 ENE 14 22 30.53 1034 10 16.0934 0 0
10:52 pm 22:52 Cloudy 40 4.4 21 -6.1 47 47 NE 12 19 30.55 1035 10 16.0934 0 0
11:52 pm 23:52 Cloudy 40 4.4 23 -5 51 51 NE 12 19 30.53 1034 10 16.0934 0 0

Powered by AerisWeather